User: anonymous   Login
Location: Stigler
(35.2540°N, 95.1230°W)
Time: 06:24:53
(UTC-06:00)
Language:

Cosmos 1805 - Orbit

View from above orbital plane
View from above orbital plane
View from above satellite
View from above satellite

Ground track
Ground track

The orbit data is extracted from the following two-line orbital elements,

1 17191U 86097A   15058.79334957  .00002183  00000-0  13542-3 0  9997
2 17191 082.4862 135.9761 0006703 089.8847 270.3150 15.09227565536759
Epoch (UTC): 27 February 2015 19:02:25
Eccentricity: 0.0006703
inclination: 82.4862°
perigee height: 534 km
apogee height: 543 km
right ascension of ascending node: 135.9761°
argument of perigee: 89.8847°
revolutions per day: 15.09227565
mean anomaly at epoch: 270.3150°
orbit number at epoch: 53675

The dashed part of the orbit path shows where the satellite is in the earth's shadow,  

DLR